This is the latest recevied weather packets stored in our database for station/object WMKM. If no packets are shown the sender has not sent any weather packets the latest 10 day(s).
| Time | Temp. | Humidity | Pressure | Rain* | Wind** | Luminosity | Snow |
|---|---|---|---|---|---|---|---|
| 1777745439 | 25.56° C | 88% | 1009 hPa | - | - | - | - |
| 1777741838 | 25.56° C | 88% | 1009 hPa | - | - | - | - |
| 1777740639 | 25.56° C | 88% | 1010 hPa | - | - | - | - |
| 1777740054 | 24.44° C | 98% | 1010.7 hPa | - | - | - | - |
| 1777738239 | 25.56° C | 88% | 1010 hPa | - | - | - | - |
| 1777734639 | 25.56° C | 88% | 1010 hPa | - | - | - | - |
| 1777731057 | 25.56° C | 88% | 1009 hPa | - | - | - | - |
| 1777727439 | 26.67° C | 83% | 1009 hPa | - | - | - | - |
| 1777723843 | 26.67° C | 83% | 1007 hPa | - | - | - | - |
| 1777720240 | 27.78° C | 78% | 1007 hPa | - | - | - | - |
| 1777716657 | 30° C | 74% | 1006 hPa | - | - | - | - |
| 1777713038 | 31.67° C | 70% | 1005 hPa | - | - | - | - |
| 1777709438 | 31.67° C | 70% | 1006 hPa | - | - | - | - |
| 1777705840 | 30° C | 79% | 1007 hPa | - | - | - | - |
| 1777702255 | 31.67° C | 66% | 1008 hPa | - | - | - | - |
| 1777698642 | 31.67° C | 66% | 1009 hPa | - | - | - | - |
| 1777695038 | 30.56° C | 70% | 1010 hPa | - | - | - | - |
| 1777691438 | 30.56° C | 70% | 1011 hPa | - | - | - | - |
| 1777687855 | 28.89° C | 79% | 1010 hPa | - | - | - | - |
| 1777684241 | 27.78° C | 83% | 1010 hPa | - | - | - | - |
| 1777680638 | 25° C | 94% | 1009 hPa | - | - | - | - |
| 1777677037 | 23.89° C | 94% | 1008 hPa | - | - | - | - |
| 1777673439 | 23.89° C | 94% | 1008 hPa | - | - | - | - |
| 1777669855 | 23.89° C | 94% | 1008 hPa | - | - | - | - |
| 1777666237 | 23.89° C | 94% | 1008 hPa | - | - | - | - |
* Rain since midnight (hover to see other rain measurements)
** Current wind speed in m/s (hover to see current wind gust speed)